�N����,����,�~����,�C��,���x,�C��,����,���ϕ���,�ő�u�ԕ���,�ő厞����,���˗�,�I�_���x,�n�����x,�ő啗���N��,DTYPE
"18/10/04","00:10",0.0,16.4,85.7,1016.6,325.9,1.8,2.6,325.1,0.00,14.0,20.3,"00:04:24",1
"18/10/04","00:20",0.0,16.4,85.5,1016.8,313.0,1.7,2.8,319.1,0.00,14.0,20.6,"00:18:16",1
"18/10/04","00:30",0.0,16.4,85.2,1017.1,304.4,1.3,2.0,320.8,0.00,13.9,20.4,"00:28:00",1
"18/10/04","00:40",0.0,16.3,85.5,1016.8,293.1,1.2,2.1,308.8,0.00,13.9,20.3,"00:34:00",1
"18/10/04","00:50",0.0,16.1,85.7,1016.8,308.3,1.2,1.9,311.0,0.00,13.7,20.1,"00:43:36",1
"18/10/04","01:00",0.0,16.0,86.7,1016.6,317.9,1.2,1.7,337.4,0.00,13.8,20.3,"00:53:20",1
"18/10/04","01:10",0.0,16.3,87.0,1016.8,324.5,1.8,3.4,336.9,0.00,14.2,20.1,"01:08:16",1
"18/10/04","01:20",0.0,16.5,86.5,1016.8,325.2,1.8,3.4,321.2,0.00,14.3,20.1,"01:16:56",1
"18/10/04","01:30",0.0,16.6,85.7,1017.1,329.8,1.7,3.1,338.9,0.00,14.2,20.0,"01:26:32",1
"18/10/04","01:40",0.0,16.6,85.3,1017.3,329.7,1.5,2.5,325.6,0.00,14.2,20.2,"01:37:12",1
"18/10/04","01:50",0.0,16.4,86.0,1017.5,326.8,1.6,2.5,343.2,0.00,14.1,20.2,"01:49:44",1
"18/10/04","02:00",0.0,16.4,86.3,1017.3,333.3,1.7,2.7,343.9,0.00,14.1,20.1,"01:55:36",1
"18/10/04","02:10",0.0,16.3,86.8,1017.5,336.0,1.7,2.6,338.8,0.00,14.1,20.1,"02:02:08",1
"18/10/04","02:20",0.0,16.2,87.4,1017.5,340.2,1.7,2.7,348.6,0.00,14.1,20.0,"02:11:36",1
"18/10/04","02:30",0.0,16.3,87.4,1017.3,336.0,2.1,3.3,343.6,0.00,14.2,19.8,"02:27:36",1
"18/10/04","02:40",0.0,16.2,87.7,1017.3,334.5,2.0,2.7,339.9,0.00,14.2,19.9,"02:31:44",1
"18/10/04","02:50",0.0,16.5,87.4,1017.1,331.6,2.5,3.5,320.4,0.00,14.4,19.8,"02:43:36",1
"18/10/04","03:00",0.0,16.6,86.5,1017.1,326.2,2.3,3.4,327.8,0.00,14.4,19.8,"02:50:02",1
"18/10/04","03:10",0.0,16.6,85.9,1017.1,322.9,2.6,3.4,338.1,0.00,14.3,19.9,"03:09:04",1
"18/10/04","03:20",0.0,16.6,85.8,1016.8,320.1,2.2,3.6,331.6,0.00,14.3,19.8,"03:14:24",1
"18/10/04","03:30",0.0,16.5,85.9,1016.8,312.8,1.8,3.5,334.7,0.00,14.2,19.9,"03:23:44",1
"18/10/04","03:40",0.0,16.4,86.0,1017.1,316.5,2.0,2.9,345.4,0.00,14.1,19.9,"03:35:44",1
"18/10/04","03:50",0.0,16.3,86.0,1016.4,308.4,1.7,3.9,328.8,0.00,14.0,19.9,"03:41:28",1
"18/10/04","04:00",0.0,16.3,86.6,1016.6,313.8,2.1,3.5,329.4,0.00,14.1,20.0,"03:55:30",1
"18/10/04","04:10",0.0,16.4,86.5,1016.6,319.7,2.0,3.6,331.1,0.00,14.2,19.9,"04:09:36",1
"18/10/04","04:20",0.0,16.5,85.7,1017.1,329.5,2.5,3.5,324.6,0.00,14.1,19.7,"04:14:40",1
"18/10/04","04:30",0.0,16.5,85.8,1017.1,331.1,2.1,3.4,307.3,0.00,14.2,19.7,"04:24:00",1
"18/10/04","04:40",0.0,16.4,86.0,1017.3,331.0,2.2,4.2,324.9,0.00,14.1,19.9,"04:35:12",1
"18/10/04","04:50",0.0,16.4,86.1,1017.3,325.9,1.7,3.4,351.0,0.00,14.1,19.8,"04:41:12",1
"18/10/04","05:00",0.0,16.3,86.3,1017.3,330.3,2.2,3.3,341.8,0.00,14.0,19.7,"04:55:04",1
"18/10/04","05:10",0.0,16.1,86.4,1017.3,324.7,1.6,3.1,332.9,0.00,13.9,19.7,"05:00:40",1
"18/10/04","05:20",0.0,15.8,87.4,1016.8,309.6,1.2,2.1,326.3,0.00,13.8,19.8,"05:18:16",1
"18/10/04","05:30",0.0,15.7,88.2,1016.8,313.6,1.5,2.8,351.1,0.00,13.8,19.6,"05:29:28",1
"18/10/04","05:40",0.0,15.8,88.2,1017.1,326.2,2.2,4.3,324.1,0.00,13.9,19.7,"05:34:32",1
"18/10/04","05:50",0.0,15.9,88.2,1016.8,329.2,2.7,4.4,336.9,0.00,14.0,19.6,"05:48:16",1
"18/10/04","06:00",0.0,16.0,87.7,1016.8,329.0,3.2,5.2,317.1,0.00,14.0,19.9,"05:52:18",1
"18/10/04","06:10",0.0,16.1,87.3,1016.6,325.6,3.0,5.0,339.3,0.00,14.0,19.6,"06:06:46",1
"18/10/04","06:20",0.0,16.3,86.8,1016.8,325.1,3.1,5.1,320.9,0.00,14.1,19.6,"06:18:16",1
"18/10/04","06:30",0.0,16.5,86.3,1017.3,326.4,3.0,4.4,324.3,0.00,14.2,19.5,"06:22:16",1
"18/10/04","06:40",0.0,16.7,85.9,1017.3,330.5,2.6,4.8,341.2,0.00,14.4,19.5,"06:36:56",1
"18/10/04","06:50",0.0,16.6,85.9,1017.1,325.7,2.2,3.9,329.2,0.00,14.3,19.6,"06:46:00",1
"18/10/04","07:00",0.0,16.7,85.9,1018.0,319.0,1.6,2.8,337.5,0.00,14.4,19.7,"06:54:48",1
"18/10/04","07:10",0.0,16.7,86.1,1018.0,326.4,1.8,2.7,340.1,0.00,14.4,19.6,"07:06:00",1
"18/10/04","07:20",0.0,16.7,86.1,1017.8,325.6,2.2,3.9,343.1,0.01,14.4,19.5,"07:17:12",1
"18/10/04","07:30",0.0,16.9,86.0,1018.0,306.1,1.3,2.4,336.5,0.01,14.6,19.6,"07:20:32",1
"18/10/04","07:40",0.0,16.9,85.9,1018.5,312.5,1.3,2.6,329.9,0.01,14.6,19.6,"07:30:02",1
"18/10/04","07:50",0.0,17.0,85.7,1018.2,316.8,1.8,2.9,327.9,0.02,14.6,19.7,"07:43:28",1
"18/10/04","08:00",0.0,17.0,85.6,1018.2,292.7,1.2,2.5,316.4,0.01,14.6,19.6,"07:58:48",1
"18/10/04","08:10",0.0,17.0,85.5,1018.7,315.1,1.7,4.1,334.6,0.02,14.6,19.6,"08:00:02",1
"18/10/04","08:20",0.0,17.1,85.5,1018.5,314.9,1.8,3.2,322.4,0.02,14.7,19.7,"08:18:32",1
"18/10/04","08:30",0.0,17.2,85.2,1018.7,330.1,2.5,3.9,322.3,0.02,14.7,19.7,"08:24:08",1
"18/10/04","08:40",0.0,17.3,84.9,1019.0,324.7,2.3,5.1,342.1,0.02,14.8,19.7,"08:39:36",1
"18/10/04","08:50",0.0,17.4,84.4,1019.0,328.8,3.0,5.2,340.3,0.02,14.8,19.7,"08:42:56",1
"18/10/04","09:00",0.0,17.5,84.0,1019.0,324.1,2.2,4.4,336.7,0.02,14.8,19.7,"08:51:28",1
"18/10/04","09:10",0.0,17.7,83.8,1019.2,314.4,2.1,3.5,314.2,0.03,15.0,19.8,"09:00:24",1
"18/10/04","09:20",0.0,17.8,83.8,1019.0,331.2,2.0,3.7,337.8,0.04,15.1,19.8,"09:11:20",1
"18/10/04","09:30",0.0,18.1,83.9,1019.0,326.7,1.6,2.6,315.5,0.05,15.4,19.8,"09:20:16",1
"18/10/04","09:40",0.0,18.4,84.3,1018.7,297.1,1.1,2.0,314.1,0.06,15.7,19.9,"09:30:08",1
"18/10/04","09:50",0.0,18.5,83.3,1019.0,294.8,1.2,1.9,312.5,0.06,15.7,20.0,"09:43:28",1
"18/10/04","10:00",0.0,18.7,83.3,1019.2,288.9,1.3,2.4,264.7,0.06,15.9,20.0,"09:53:12",1
"18/10/04","10:10",0.0,18.7,83.2,1019.4,297.3,1.1,1.9,314.2,0.04,15.8,20.0,"10:02:56",1
"18/10/04","10:20",0.0,18.9,84.9,1019.4,293.1,1.1,2.2,332.2,0.06,16.3,20.2,"10:18:48",1
"18/10/04","10:30",0.0,18.7,85.6,1019.4,311.2,1.1,2.4,316.6,0.07,16.3,20.0,"10:25:52",1
"18/10/04","10:40",0.0,18.7,85.4,1019.0,271.8,1.2,2.2,301.1,0.05,16.2,20.1,"10:35:28",1
"18/10/04","10:50",0.0,19.0,84.6,1019.0,276.9,1.0,1.6,272.1,0.07,16.4,19.9,"10:48:40",1
"18/10/04","11:00",0.0,19.4,84.6,1019.0,291.4,1.1,2.0,301.0,0.07,16.8,20.0,"10:53:20",1
"18/10/04","11:10",0.0,19.6,83.3,1019.4,312.3,1.1,1.8,306.6,0.08,16.7,20.4,"11:04:40",1
"18/10/04","11:20",0.0,19.6,83.0,1019.0,332.4,1.1,2.6,325.4,0.09,16.7,20.3,"11:13:20",1
"18/10/04","11:30",0.0,20.0,82.6,1018.7,290.1,0.8,1.4,332.9,0.10,17.0,20.5,"11:21:36",1
"18/10/04","11:40",0.0,20.2,81.5,1018.7,291.5,0.7,1.1,319.2,0.08,17.0,20.4,"11:35:28",1
"18/10/04","11:50",0.0,20.4,80.4,1018.2,296.7,1.0,1.7,340.5,0.06,17.0,20.5,"11:47:52",1
"18/10/04","12:00",0.0,20.3,80.5,1018.5,313.5,1.2,1.9,327.0,0.05,16.9,20.5,"11:57:04",1
"18/10/04","12:10",0.0,20.4,80.4,1018.5,315.3,1.3,2.4,345.6,0.03,17.0,20.5,"12:04:00",1
"18/10/04","12:20",0.0,20.5,81.3,1018.5,282.1,0.8,1.9,246.4,0.03,17.2,20.6,"12:12:32",1
"18/10/04","12:30",0.0,20.6,83.8,1018.2,307.9,0.8,1.3,302.6,0.04,17.8,20.6,"12:22:32",1
"18/10/04","12:40",0.0,20.4,84.7,1018.0,294.8,1.2,1.9,315.5,0.06,17.8,20.5,"12:32:32",1
"18/10/04","12:50",0.0,20.2,85.9,1017.8,274.0,1.3,2.2,288.4,0.05,17.8,20.7,"12:43:28",1
"18/10/04","13:00",0.0,19.9,86.7,1017.5,282.9,1.1,1.7,273.6,0.05,17.7,20.6,"12:50:56",1
"18/10/04","13:10",0.0,20.3,86.9,1017.3,293.7,0.7,1.1,302.3,0.08,18.1,20.5,"13:01:04",1
"18/10/04","13:20",0.0,20.5,85.9,1017.1,301.3,1.2,2.1,335.4,0.09,18.1,20.7,"13:17:04",1
"18/10/04","13:30",0.0,20.8,84.1,1017.1,322.8,0.7,2.1,20.5,0.09,18.1,20.7,"13:23:52",1
"18/10/04","13:40",0.0,21.1,81.5,1017.1,4.3,0.5,1.3,325.0,0.10,17.9,20.9,"13:36:08",1
"18/10/04","13:50",0.0,21.4,78.3,1017.1,73.7,0.5,1.3,120.5,0.08,17.5,20.8,"13:40:08",1
"18/10/04","14:00",0.0,21.5,78.4,1016.8,117.7,0.5,1.3,81.8,0.09,17.6,20.9,"13:58:24",1
"18/10/04","14:10",0.0,21.4,76.6,1016.6,20.7,0.6,4.0,15.5,0.08,17.2,20.7,"14:04:08",1
"18/10/04","14:20",0.0,21.6,77.5,1016.6,25.7,0.5,1.3,110.0,0.07,17.5,20.8,"14:15:20",1
"18/10/04","14:30",0.0,21.6,76.6,1016.8,16.1,0.3,1.0,33.9,0.07,17.4,21.0,"14:29:52",1
"18/10/04","14:40",0.0,21.6,76.9,1017.1,43.9,0.5,1.0,332.6,0.05,17.4,20.8,"14:36:24",1
"18/10/04","14:50",0.0,21.2,78.7,1017.1,161.6,0.3,1.1,135.7,0.02,17.4,21.2,"14:44:08",1
"18/10/04","15:00",0.0,20.9,80.8,1016.8,295.1,0.3,1.4,97.8,0.02,17.5,20.8,"14:51:28",1
"18/10/04","15:10",0.0,21.1,81.9,1017.1,358.6,0.5,1.1,317.3,0.04,17.9,21.0,"15:09:28",1
"18/10/04","15:20",0.0,21.1,82.4,1017.3,315.5,0.5,1.1,320.4,0.03,18.0,21.0,"15:10:32",1
"18/10/04","15:30",0.2,21.0,83.3,1017.1,351.9,0.5,1.2,339.4,0.02,18.1,21.0,"15:25:36",1
"18/10/04","15:40",0.0,20.9,84.0,1017.1,329.8,1.0,1.3,337.9,0.01,18.1,21.1,"15:32:32",1
"18/10/04","15:50",0.0,20.5,85.0,1017.3,355.9,0.7,1.6,356.6,0.00,17.9,21.0,"15:46:08",1
"18/10/04","16:00",0.0,20.6,85.8,1017.3,331.5,1.2,2.1,324.4,0.01,18.2,21.1,"15:55:12",1
"18/10/04","16:10",0.0,20.3,87.5,1017.3,325.8,1.2,2.5,339.0,0.03,18.2,21.1,"16:00:08",1
"18/10/04","16:20",0.0,20.1,88.3,1017.3,317.6,1.2,2.0,329.0,0.02,18.1,21.1,"16:12:32",1
"18/10/04","16:30",0.0,20.0,89.0,1017.5,278.5,0.8,1.0,302.3,0.01,18.2,21.0,"16:23:28",1
"18/10/04","16:40",0.2,19.9,89.3,1017.8,277.3,1.0,1.3,288.9,0.00,18.1,20.9,"16:35:36",1
"18/10/04","16:50",0.2,19.7,90.0,1018.0,304.9,1.1,1.9,320.1,0.00,18.1,20.9,"16:47:04",1
"18/10/04","17:00",0.0,19.7,90.4,1018.0,323.4,0.8,1.2,332.5,0.00,18.1,20.9,"16:52:16",1
"18/10/04","17:10",0.2,19.7,91.3,1018.0,313.4,1.0,1.6,320.4,0.00,18.3,21.0,"17:06:32",1
"18/10/04","17:20",0.0,19.4,91.4,1018.0,301.3,1.1,2.1,334.8,0.00,18.0,20.9,"17:13:28",1
"18/10/04","17:30",0.0,19.1,91.8,1018.0,306.4,0.7,1.6,333.2,0.00,17.8,21.0,"17:27:04",1
"18/10/04","17:40",0.2,19.0,92.4,1018.0,275.9,0.8,1.0,300.7,0.00,17.8,21.0,"17:32:48",1
"18/10/04","17:50",0.0,18.9,92.6,1018.2,262.7,0.8,1.6,245.1,0.00,17.7,20.8,"17:47:44",1
"18/10/04","18:00",0.0,18.8,92.8,1018.0,306.7,0.7,1.3,314.3,0.00,17.7,20.8,"17:56:40",1
"18/10/04","18:10",0.0,18.7,93.0,1018.2,314.1,0.6,1.3,332.7,0.00,17.6,20.7,"18:00:02",1
"18/10/04","18:20",0.0,18.6,93.3,1018.7,308.2,1.0,1.4,339.9,0.00,17.5,20.6,"18:12:08",1
"18/10/04","18:30",0.0,18.5,93.6,1018.5,293.7,1.0,1.7,316.6,0.00,17.5,20.9,"18:25:52",1
"18/10/04","18:40",0.0,18.4,93.9,1018.5,307.1,0.7,1.6,313.1,0.00,17.4,20.7,"18:31:44",1
"18/10/04","18:50",0.0,18.3,94.2,1018.7,318.6,1.0,1.9,318.0,0.00,17.4,20.9,"18:45:36",1
"18/10/04","19:00",0.0,18.3,94.3,1019.0,283.1,1.1,1.8,326.7,0.00,17.4,20.7,"18:57:52",1
"18/10/04","19:10",0.0,18.3,94.6,1018.7,296.9,0.8,1.4,318.7,0.00,17.5,20.6,"19:07:48",1
"18/10/04","19:20",0.0,18.3,94.6,1019.0,327.9,1.2,2.2,326.4,0.00,17.5,20.7,"19:13:28",1
"18/10/04","19:30",0.0,18.3,94.8,1019.0,292.4,1.1,1.7,319.5,0.00,17.5,20.7,"19:21:36",1
"18/10/04","19:40",0.0,18.4,95.0,1019.0,303.6,0.8,1.8,335.7,0.00,17.6,20.7,"19:31:20",1
"18/10/04","19:50",0.0,18.4,95.1,1019.2,295.4,1.0,1.4,324.7,0.00,17.6,20.5,"19:44:48",1
"18/10/04","20:00",0.0,18.3,95.0,1018.7,288.0,0.8,1.2,314.3,0.00,17.5,20.6,"19:51:20",1
"18/10/04","20:10",0.0,18.4,94.9,1019.4,320.9,1.3,1.8,339.6,0.00,17.6,20.5,"20:01:44",1
"18/10/04","20:20",0.0,18.5,95.2,1019.2,326.1,1.1,1.9,327.0,0.00,17.8,20.5,"20:10:08",1
"18/10/04","20:30",0.0,18.5,95.2,1019.2,318.3,1.0,1.8,332.2,0.00,17.8,20.5,"20:22:48",1
"18/10/04","20:40",0.0,18.5,95.3,1019.2,298.2,1.1,1.7,329.8,0.00,17.8,20.5,"20:34:48",1
"18/10/04","20:50",0.0,18.4,95.1,1019.0,277.0,1.0,1.8,322.1,0.00,17.6,20.4,"20:44:56",1
"18/10/04","21:00",0.0,18.3,95.4,1019.0,319.0,1.1,1.8,315.9,0.00,17.6,20.6,"20:58:16",1
"18/10/04","21:10",0.0,18.4,95.4,1019.0,328.0,1.2,1.8,313.0,0.00,17.7,20.6,"21:06:16",1
"18/10/04","21:20",0.0,18.3,95.4,1019.4,288.5,0.7,1.3,307.7,0.00,17.6,20.4,"21:10:16",1
"18/10/04","21:30",0.0,18.3,95.5,1019.4,307.6,1.1,1.8,308.0,0.00,17.6,20.6,"21:28:24",1
"18/10/04","21:40",0.0,18.3,95.6,1019.2,291.4,0.8,1.6,326.5,0.00,17.6,20.5,"21:37:12",1
"18/10/04","21:50",0.0,18.4,95.4,1019.0,295.3,0.6,1.2,307.4,0.00,17.7,20.5,"21:47:44",1
"18/10/04","22:00",0.0,18.5,95.3,1019.0,277.6,0.7,1.3,318.0,0.00,17.8,20.5,"21:56:56",1
"18/10/04","22:10",0.0,18.5,95.4,1019.0,307.2,0.8,1.8,331.4,0.00,17.8,20.4,"22:02:24",1
"18/10/04","22:20",0.0,18.6,95.3,1018.7,279.6,0.7,1.1,282.1,0.00,17.9,20.5,"22:14:08",1
"18/10/04","22:30",0.0,18.6,95.2,1019.0,300.8,0.7,1.6,331.9,0.00,17.9,20.4,"22:22:00",1
"18/10/04","22:40",0.0,18.8,95.4,1019.2,298.2,1.0,1.4,308.7,0.00,18.1,20.5,"22:33:52",1
"18/10/04","22:50",0.0,18.8,95.4,1019.0,285.3,0.7,1.4,313.4,0.00,18.1,20.5,"22:49:04",1
"18/10/04","23:00",0.0,18.8,95.4,1018.7,316.4,1.1,1.7,316.7,0.00,18.1,20.4,"22:56:16",1
"18/10/04","23:10",0.0,18.8,95.4,1018.7,309.9,0.8,1.9,211.4,0.00,18.1,20.6,"23:03:28",1
"18/10/04","23:20",0.0,18.8,95.1,1018.7,283.1,0.7,1.2,323.3,0.00,18.0,20.3,"23:12:24",1
"18/10/04","23:30",0.0,18.7,94.8,1019.0,277.3,0.7,1.7,317.8,0.00,17.9,20.4,"23:25:04",1
"18/10/04","23:40",0.0,18.8,94.6,1018.7,308.6,1.1,1.7,335.8,0.00,18.0,20.4,"23:37:36",1
"18/10/04","23:50",0.0,18.9,94.9,1018.7,282.9,0.6,1.6,204.8,0.00,18.1,20.4,"23:40:08",1
"18/10/04","24:00",0.0,18.8,94.5,1018.5,294.2,0.8,1.9,59.5,0.00,17.9,20.4,"23:58:16",1
